Location: Gleizolles
(44.4833°N, 6.7667°E)
Time: 01:33:28
(UTC+00:00)

Vanguard 2 Rocket - Pass Details

Date: 16 June 2024
Orbit: 555 x 3302 km, 32.9° (Epoch: 24 July)

Event Time Altitude Azimuth Distance (km) Brightness Sun altitude
Rises 02:12:56 0° 214° (SW) 7,177 - -13.0°
Reaches altitude 10° 02:18:31 10° 206° (SSW) 6,243 - -12.4°
Exits shadow 02:19:27 12° 204° (SSW) 6,093 10.5 -12.3°
Maximum altitude 02:34:48 33° 152° (SSE) 4,295 10.1 -10.5°
Drops below altitude 10° 02:47:52 10° 96° (E) 5,050 11.2 -9.0°
Sets 02:51:43 0° 87° (E) 5,703 11.8 -8.5°
